Location: Paderno d�Adda
(45.6667°N, 9.4333°E)
Time: 16:52:33
(UTC+00:00)

USA 238 - Pass Details

Date: 19 September 2020
Orbit: 1006 x 1206 km, 63.4° (Epoch: 15 October)

Event Time Altitude Azimuth Distance (km) Brightness Sun altitude
Rises 18:48:07 0° 321° (NW) 3,935 7.7 -15.1°
Reaches altitude 10° 18:50:47 10° 325° (NW) 3,003 6.9 -15.5°
Maximum altitude 18:57:57 66° 47° (NE) 1,259 3.9 -16.7°
Enters shadow 19:02:36 25° 123° (ESE) 2,193 4.7 -17.5°
